Location: St. Louis
(38.6270°N, 90.1994°W)
Time: 08:56:57
(UTC-06:00)

deb Explorer IX - Pass Details

Date: 07 December 2021
Orbit: 544 x 1082 km, 38.8° (Epoch: 19 January)

Event Time Altitude Azimuth Distance (km) Brightness Sun altitude
Rises 14:55:28 0° 269° (W) 2,724 ? 15.2°
Reaches altitude 10° 14:59:35 10° 229° (SW) 1,797 ? 14.6°
Maximum altitude 15:00:25 11° 216° (SW) 1,762 ? 14.5°
Drops below altitude 10° 15:01:16 10° 204° (SSW) 1,797 ? 14.4°
Sets 15:05:23 0° 164° (SSE) 2,722 ? 13.8°
